Regional Weather Roundup
Issued by NWS Newport/Morehead, NC

Current Version | Previous Version | Graphics & Text | Print | Product List | Glossary Off
Versions: 1 2 3 4 5 6 7 8 9 10 11 12 13 14 15 16 17 18 19 20 21 22 23 24 25 26 27 28 29 30 31 32 33 34 35 36 37 38 39 40 41 42 43 44 45 46 47 48 49 50

000
ASUS42 KMHX 041312
RWRMHX
WEATHER ROUNDUP FOR EASTERN NORTH CAROLINA
NATIONAL WEATHER SERVICE NEWPORT/MOREHEAD CITY NC
900 AM EDT MON MAY 04 2015

NOTE: "FAIR" INDICATES FEW OR NO CLOUDS BELOW 12,000 FEET
WITH NO SIGNIFICANT WEATHER AND/OR OBSTRUCTIONS TO VISIBILITY

NCZ015>017-031-032-045>047-102-103-041400-
NORTH COAST

CITY           SKY/WX    TMP DP  RH WIND       PRES   REMARKS
EDENTON        MOSUNNY   67  55  64 W5        30.33R
ELIZABETH CITY SUNNY     68  55  63 W10       30.32R
KITTY HAWK     SUNNY     67  54  64 W7        30.31R
MANTEO         SUNNY     67  53  61 NW7       30.33R

$$

NCZ045>047-081-094-103-104-041400-
CENTRAL COAST

CITY           SKY/WX    TMP DP  RH WIND       PRES   REMARKS
FRISCO         SUNNY     65  55  70 VRB5      30.33R
SWANQUARTER      N/A     68 N/A N/A W3        30.30S

$$

NCZ095-097-098-100-101-041400-
SOUTHERN COAST

CITY           SKY/WX    TMP DP  RH WIND       PRES   REMARKS
BEAUFORT       MOSUNNY   68  57  68 NW6       30.33R
CEDAR ISLAND     N/A     66 N/A N/A NE2       30.39R
JACKSONVILLE   SUNNY     67  56  67 W3        30.33R
PINEY ISLAND   NOT AVBL
WILMINGTON     SUNNY     69  58  67 CALM      30.33R


$$

NCZ011>013-027>030-043-044-078>080-089-090>093-098-041400-
COASTAL PLAIN

CITY           SKY/WX    TMP DP  RH WIND       PRES   REMARKS
AHOSKIE        SUNNY     63  55  74 CALM      30.32S
CLINTON        SUNNY     64  60  85 CALM      30.33S
ELIZABETHTOWN  CLOUDY    64  59  86 CALM      30.33R
GOLDSBORO      MOSUNNY   63  57  81 CALM      30.30R
GREENVILLE     MOSUNNY   64  57  77 CALM      30.32S
HAVELOCK       SUNNY     67  55  65 CALM      30.35R
KENANSVILLE    CLOUDY    64  57  79 SW3       30.34R
KINSTON        MOSUNNY   66  57  72 W5        30.33R
NEW BERN       SUNNY     68  56  65 CALM      30.34R
RICHLANDS      MOSUNNY   68  55  64 S3        30.34R
ROCKY MOUNT    MOSUNNY   67  56  67 S6        30.32R
WASHINGTON     PTSUNNY   67  55  66 W3        30.33R
WHITEVILLE     MOSUNNY   66  60  80 CALM      30.33R

$$

AMZ130-135-150-152-154-156-158-170-250-252-270-ANZ085-086-088-633-658-670-041400-
MARINE OBSERVATIONS

STATION/POSITION TIME  TEMP    WIND        PRES    WAVE   SWELL
                       AIR SEA DIR/SP/G            HT/PER HT/PER
                 (UTC) (F)     (DEG/KT/KT) (MB)    (FT/S) (FT/S)
CHESAPEAKE LIGHT 1300   66     270/ 12/ 12 1026.7
64 E VA BEACH    1250   59 60  270/  6/  6 1025.9    4/10   3/10
DUCK             1200   63 54  260/  9/ 10 1025.3
2 E DUCK         1211      56                N/A     3/13   2/13
OREGON INLET     1200   63 62  240/  6/  7 1026.5
13E OREGON INLT  1300      54                N/A     3/12   2/12
HATTERAS CG      1200   66 63  330/  2/  3 1026.4
DIAMOND BUOY     1250   66     310/  6/  8 1027.1    4/10   3/10
CAPE LOOKOUT     1300   69      80/  2/  4 1027.1
BEAUFORT LAB     1200   65 64  350/  4/  4 1025.9
27 SE WRIGHTSVLE 1200   69 71   30/  4/  4   N/A
5 SE WRIGHTSVLE  1208   67 67   80/  4/  6 1026.7
225 S CAPE HAT   1250   68 70   60/ 14/ 17 1027.0    6/11   5/11
41 SE CHARLESTON 1250   73 74   80/  8/ 10 1026.0    3/10   3/10

$$



USA.gov is the U.S. government's official web portal to all federal, state and local government web resources and services.